IU6BJT Weather Reports


Display with metric or nautical units.
time (UTC)temp
F
wind
direction
speed
MPH
gust
MPH
rain 1hr
in
rain 24hr
in
rain mn
in
humidity
%
barometer
mb
20260507070019 68 214 2.0 4.0 0.00 0.07 0.05 68 1013.3
20260507065016 67 225 4.0 7.0 0.00 0.07 0.05 69 1013.2
20260507064038 66 227 1.0 2.0 0.00 0.08 0.05 79 1013.2
20260507063030 64 259 2.0 3.0 0.00 0.08 0.05 83 1013.1
20260507062027 64 289 3.0 4.0 0.00 0.08 0.05 82 1013.0
20260507061024 63 250 2.0 3.0 0.00 0.11 0.05 86 1013.1
20260507060023 62 261 1.0 2.0 0.00 0.13 0.05 88 1013.0
20260507055018 61 257 2.0 3.0 0.00 0.13 0.05 90 1013.2
20260507054036 61 275 2.0 2.0 0.00 0.13 0.05 89 1013.1
20260507053032 61 254 1.0 2.0 0.00 0.13 0.05 89 1013.0
20260507052029 60 222 0.0 1.0 0.00 0.13 0.05 90 1013.0
20260507051026 60 224 0.0 1.0 0.00 0.14 0.05 91 1012.9
20260507050104 60 230 1.0 2.0 0.00 0.14 0.05 92 1012.8
20260507045020 60 235 0.0 1.0 0.00 0.14 0.05 92 1012.7
20260507044018 60 235 0.0 1.0 0.00 0.14 0.05 92 1012.5
20260507043035 59 235 0.0 1.0 0.00 0.14 0.05 92 1012.4
20260507042032 59 0.0 0.0 0.00 0.14 0.05 91 1012.4
20260507041049 59 235 0.0 0.0 0.01 0.14 0.05 91 1012.3
20260507040028 59 173 1.0 2.0 0.02 0.14 0.05 91 1012.2
20260507035023 60 143 1.0 3.0 0.03 0.14 0.05 90 1012.0
20260507034020 60 137 2.0 4.0 0.03 0.14 0.05 90 1012.0
20260507033017 60 136 2.0 3.0 0.03 0.14 0.05 89 1012.0
20260507032034 60 149 0.0 1.0 0.04 0.14 0.05 89 1012.1
20260507031032 61 138 2.0 2.0 0.03 0.13 0.04 87 1012.1
20260507030029 61 199 2.0 2.0 0.02 0.12 0.03 83 1012.0
20260507025026 61 181 2.0 3.0 0.02 0.11 0.02 85 1012.1
20260507024023 61 183 1.0 1.0 0.02 0.11 0.02 83 1011.9
20260507023041 62 255 1.0 2.0 0.02 0.11 0.02 81 1011.7
20260507022037 63 306 1.0 2.0 0.01 0.10 0.01 77 1011.4
20260507021034 63 309 2.0 3.0 0.01 0.10 0.01 77 1011.5
20260507020051 63 266 1.0 2.0 0.01 0.10 0.01 76 1011.7
20260507015050 62 244 1.0 2.0 0.00 0.09 0.00 78 1011.7
20260507014025 63 258 1.0 2.0 0.00 0.09 0.00 75 1011.7
20260507013023 63 276 2.0 4.0 0.00 0.09 0.00 76 1011.7
20260507012020 62 281 1.0 2.0 0.00 0.09 0.00 76 1011.5
20260507011017 63 282 1.0 2.0 0.00 0.09 0.00 76 1011.6
20260507010034 62 229 2.0 2.0 0.00 0.09 0.00 76 1011.5
20260507005031 62 123 0.0 1.0 0.00 0.09 0.00 77 1011.6
20260507004028 62 123 1.0 2.0 0.00 0.09 0.00 76 1011.5
20260507003027 63 150 2.0 2.0 0.00 0.09 0.00 74 1011.5
20260507002022 64 253 1.0 2.0 0.00 0.09 0.00 70 1011.7
20260507001019 64 225 1.0 3.0 0.00 0.09 0.00 69 1011.6
20260507000017 65 174 2.0 2.0 0.00 0.09 0.00 68 1011.7
20260506235034 65 104 1.0 2.0 0.00 0.09 0.00 68 1011.8
20260506234036 65 7 2.0 3.0 0.00 0.09 0.00 67 1011.7
20260506233028 65 274 1.0 2.0 0.00 0.09 0.00 67 1011.8
20260506232025 65 193 1.0 2.0 0.00 0.09 0.00 66 1011.6
20260506231022 65 222 1.0 3.0 0.00 0.09 0.00 65 1011.7
20260506230019 66 211 1.0 2.0 0.00 0.09 0.00 65 1011.7
20260506225016 66 347 2.0 3.0 0.00 0.09 0.00 64 1011.8
20260506224038 65 2 3.0 4.0 0.00 0.09 0.00 64 1011.8
20260506223051 65 206 1.0 4.0 0.00 0.09 0.00 64 1011.9
20260506222028 65 172 2.0 4.0 0.00 0.09 0.00 66 1011.8
20260506221025 65 205 1.0 3.0 0.00 0.09 0.00 66 1011.8
20260506220022 66 248 2.0 7.0 0.00 0.09 0.09 65 1011.7
20260506215019 66 260 2.0 6.0 0.00 0.09 0.09 64 1011.7
20260506214032 66 282 1.0 4.0 0.00 0.09 0.09 63 1011.6
20260506213054 65 262 1.0 2.0 0.00 0.09 0.09 63 1011.6
20260506212031 66 242 1.0 2.0 0.00 0.09 0.09 63 1011.8
20260506211028 66 263 3.0 6.0 0.00 0.09 0.09 61 1011.8
20260506210027 66 243 1.0 3.0 0.00 0.09 0.09 63 1011.9
20260506205022 66 226 2.0 4.0 0.00 0.09 0.09 62 1011.9
20260506204021 67 231 3.0 7.0 0.00 0.09 0.09 61 1011.7
20260506203017 67 243 4.0 6.0 0.00 0.09 0.09 59 1011.8
20260506202034 66 189 7.0 11.0 0.00 0.09 0.09 61 1011.7
20260506201031 65 208 3.0 9.0 0.00 0.09 0.09 69 1011.7
20260506200028 65 132 1.0 2.0 0.00 0.09 0.09 74 1011.7
20260506195025 65 124 1.0 2.0 0.00 0.09 0.09 70 1011.6
20260506194102 65 216 1.0 4.0 0.00 0.09 0.09 69 1011.6
20260506193019 65 202 2.0 3.0 0.00 0.09 0.09 70 1011.3
20260506192016 65 179 1.0 2.0 0.00 0.09 0.09 71 1011.3
20260506191114 66 143 1.0 2.0 0.00 0.09 0.09 72 1011.2
20260506190030 66 104 2.0 3.0 0.00 0.09 0.09 70 1011.0
20260506185027 65 118 1.0 1.0 0.00 0.09 0.09 72 1010.9
20260506184024 65 223 2.0 3.0 0.00 0.09 0.09 73 1010.8
20260506183041 66 230 1.0 3.0 0.00 0.09 0.09 73 1010.6
20260506182018 66 265 2.0 4.0 0.00 0.09 0.09 69 1010.7
20260506181035 66 240 1.0 2.0 0.00 0.09 0.09 70 1010.8
20260506180031 66 177 2.0 3.0 0.00 0.09 0.09 71 1010.8
20260506175030 66 160 3.0 4.0 0.00 0.09 0.09 72 1010.6
20260506174042 66 189 3.0 4.0 0.00 0.09 0.09 72 1010.6
20260506173022 66 190 4.0 7.0 0.01 0.09 0.09 72 1010.6
20260506172019 66 187 3.0 6.0 0.02 0.09 0.09 73 1010.5
20260506171017 66 174 3.0 6.0 0.02 0.09 0.09 74 1010.5
20260506170033 66 170 4.0 6.0 0.02 0.09 0.09 74 1010.5
20260506165030 66 180 2.0 3.0 0.02 0.09 0.09 76 1010.6
20260506164027 67 273 3.0 9.0 0.02 0.09 0.09 71 1010.7
20260506163024 71 184 5.0 9.0 0.01 0.08 0.08 62 1010.6
20260506162021 73 173 3.0 5.0 0.00 0.07 0.07 53 1010.4
20260506161018 73 216 1.0 3.0 0.00 0.07 0.07 52 1010.3
20260506160035 73 265 2.0 4.0 0.00 0.07 0.07 51 1010.4
20260506155052 71 239 3.0 7.0 0.00 0.07 0.07 58 1010.3
20260506154029 69 99 1.0 4.0 0.00 0.07 0.07 73 1010.3
20260506153025 69 95 5.0 9.0 0.00 0.07 0.07 74 1010.2
20260506152022 70 102 2.0 4.0 0.00 0.07 0.07 71 1010.3
20260506151021 69 94 2.0 7.0 0.00 0.07 0.07 72 1010.3
20260506150016 68 89 3.0 8.0 0.00 0.07 0.07 75 1010.1
20260506145053 68 101 4.0 9.0 0.00 0.07 0.07 76 1010.2
20260506144030 70 109 6.0 14.0 0.00 0.07 0.07 70 1010.2
20260506143047 69 130 3.0 8.0 0.00 0.07 0.07 70 1010.1
20260506142045 69 126 3.0 9.0 0.00 0.07 0.07 73 1010.1
20260506141021 69 105 4.0 9.0 0.00 0.07 0.07 72 1010.2
20260506140018 69 112 4.0 10.0 0.00 0.07 0.07 71 1010.4
20260506135035 70 91 4.0 8.0 0.00 0.07 0.07 70 1010.5
20260506134032 70 83 3.0 6.0 0.00 0.07 0.07 70 1010.5
20260506133110 69 99 4.0 7.0 0.00 0.07 0.07 72 1010.7
20260506132026 70 94 4.0 8.0 0.00 0.07 0.07 71 1010.7
20260506131023 70 100 7.0 14.0 0.00 0.07 0.07 71 1010.8
20260506130020 70 107 3.0 7.0 0.00 0.07 0.07 70 1010.9
20260506125016 68 102 4.0 11.0 0.00 0.07 0.07 74 1010.9
20260506124033 67 139 2.0 6.0 0.00 0.07 0.07 75 1011.2
20260506123031 68 112 8.0 14.0 0.00 0.07 0.07 73 1010.9
20260506122027 68 93 8.0 14.0 0.00 0.07 0.07 72 1011.0
20260506121024 67 117 4.0 9.0 0.00 0.07 0.07 73 1010.9
20260506120022 67 104 5.0 11.0 0.00 0.07 0.07 72 1010.9
20260506115018 68 104 6.0 13.0 0.00 0.07 0.07 70 1010.8
20260506114035 68 94 5.0 13.0 0.00 0.07 0.07 70 1011.0
20260506113033 69 108 6.0 11.0 0.00 0.07 0.07 70 1010.9
20260506112028 68 112 4.0 10.0 0.00 0.07 0.07 74 1010.9
20260506111025 67 94 6.0 15.0 0.00 0.07 0.07 78 1011.0
20260506110022 68 93 8.0 16.0 0.00 0.07 0.07 77 1010.9
20260506105019 68 102 7.0 15.0 0.00 0.07 0.07 77 1011.1
20260506104016 68 103 7.0 13.0 0.00 0.07 0.07 76 1011.1
20260506103053 69 114 7.0 17.0 0.00 0.07 0.07 69 1011.3
20260506102029 68 122 6.0 13.0 0.00 0.07 0.07 69 1011.4
20260506101026 67 114 9.0 17.0 0.00 0.07 0.07 72 1011.4
20260506100023 67 106 6.0 15.0 0.00 0.07 0.07 75 1011.5
20260506095020 66 102 5.0 10.0 0.00 0.07 0.07 76 1011.7
20260506094042 67 103 6.0 10.0 0.00 0.07 0.07 73 1011.7
20260506093034 67 101 6.0 10.0 0.00 0.07 0.07 71 1011.7
20260506092031 68 129 4.0 9.0 0.00 0.07 0.07 64 1011.6
20260506091027 69 148 4.0 7.0 0.00 0.07 0.07 63 1011.6
20260506090024 68 160 3.0 7.0 0.00 0.07 0.07 62 1011.4
20260506085043 68 132 2.0 6.0 0.00 0.07 0.07 56 1011.4
20260506084023 68 125 3.0 8.0 0.00 0.07 0.07 58 1011.4
20260506083035 69 131 3.0 8.0 0.00 0.07 0.07 62 1011.6
20260506082032 67 174 3.0 6.0 0.00 0.07 0.07 72 1011.4
20260506081028 65 135 2.0 3.0 0.00 0.07 0.07 74 1011.4
20260506073035 64 138 2.0 3.0 0.01 0.08 0.07 84 1011.4
20260506072032 64 137 1.0 3.0 0.01 0.09 0.07 84 1011.7
20260506071050 63 153 1.0 1.0 0.04 0.10 0.07 85 1011.7